sat.trackr.live / text

‹ back to catalog

STARLINK-35831

NORAD 66374 · 2025-254AC

PAYLOAD ACTIVE UNKNOWN

§ Identity

Operator
Country
US
Launch date
2025-11-06
Launch site
AFWTR
Launch vehicle
Mass (kg)
RCS (m²)

Purposes: comms

External: N2YO · Heavens-Above · Gunter

§ Orbital elements

Epoch: 2026-09-20T22:10:34.077792Z

Period
93.85 min
Inclination
53.1605°
Eccentricity
0.0000976
Mean motion
15.34400055 rev/d
Perigee alt
462.0 km
Apogee alt
463.4 km
Semi-major
6,840.8 km
B*
6.0771e-4
RAAN
39.4112°
Arg perigee
75.4398°
Mean anomaly
284.6713°
Rev number
4,895

§ Raw data

STARLINK-358311 66374U 25254AC  26263.92400553  .00020212  00000+0  60771-3 0  99912 66374  53.1605  39.4112 0000976  75.4398 284.6713 15.34400055 48950

JSON: /api/v1/satellites/66374 · /tle

For live sub-satellite position, see the globe view (requires WebGL).

§ Visibility from observer

Set your observer location to see the next 7 days of passes ≥ 10°. The values pass through the URL so the page stays shareable.

No JS? Fill the form by hand. The geolocation button needs JavaScript.